| time (UTC) | temp F | wind direction | speed MPH | gust MPH | rain 1hr in | rain 24hr in | rain mn in | humidity % | barometer mb |
| 20260508173538 | 60 | 233 | 9.0 | 19.0 | 0.00 | 0.00 | 0.00 | 60 | 1020.7 |
| 20260508172617 | 59 | 244 | 9.0 | 18.0 | 0.00 | 0.00 | 0.00 | 60 | 1020.5 |
| 20260508171535 | 59 | 235 | 7.0 | 13.0 | 0.00 | 0.00 | 0.00 | 62 | 1020.5 |
| 20260508170533 | 59 | 256 | 6.0 | 11.0 | 0.00 | 0.00 | 0.00 | 61 | 1020.2 |
| 20260508165531 | 58 | 229 | 4.0 | 9.0 | 0.00 | 0.00 | 0.00 | 67 | 1020.2 |
| 20260508164529 | 57 | 249 | 5.0 | 13.0 | 0.00 | 0.00 | 0.00 | 66 | 1020.1 |
| 20260508163548 | 57 | 232 | 3.0 | 8.0 | 0.00 | 0.00 | 0.00 | 66 | 1020.1 |
| 20260508162526 | 58 | 230 | 3.0 | 7.0 | 0.00 | 0.00 | 0.00 | 64 | 1020.0 |
| 20260508161605 | 58 | 226 | 5.0 | 9.0 | 0.00 | 0.00 | 0.00 | 65 | 1019.8 |
| 20260508160523 | 58 | 171 | 2.0 | 7.0 | 0.00 | 0.00 | 0.00 | 66 | 1019.8 |
| 20260508155541 | 58 | 225 | 2.0 | 4.0 | 0.00 | 0.00 | 0.00 | 66 | 1019.7 |
| 20260508154520 | 58 | 223 | 3.0 | 7.0 | 0.00 | 0.00 | 0.00 | 66 | 1019.9 |
| 20260508153518 | 58 | 222 | 3.0 | 8.0 | 0.00 | 0.00 | 0.00 | 67 | 1019.9 |
| 20260508152516 | 58 | 219 | 3.0 | 8.0 | 0.00 | 0.00 | 0.00 | 66 | 1019.9 |
| 20260508151634 | 59 | 206 | 3.0 | 10.0 | 0.00 | 0.00 | 0.00 | 67 | 1019.9 |
| 20260508150613 | 60 | 227 | 2.0 | 8.0 | 0.00 | 0.00 | 0.00 | 67 | 1020.0 |
| 20260508145611 | 60 | 219 | 3.0 | 4.0 | 0.00 | 0.00 | 0.00 | 70 | 1020.0 |
| 20260508144609 | 57 | 224 | 4.0 | 11.0 | 0.00 | 0.00 | 0.00 | 78 | 1019.8 |
| 20260508143628 | 51 | 207 | 3.0 | 7.0 | 0.00 | 0.00 | 0.00 | 83 | 1019.7 |
| 20260508142606 | 49 | 233 | 1.0 | 6.0 | 0.00 | 0.00 | 0.00 | 84 | 1019.6 |
| 20260508141604 | 49 | 184 | 1.0 | 2.0 | 0.00 | 0.00 | 0.00 | 84 | 1019.4 |
| 20260508140602 | 49 | 192 | 2.0 | 6.0 | 0.00 | 0.00 | 0.00 | 85 | 1019.3 |
| 20260508135600 | 48 | 187 | 1.0 | 3.0 | 0.00 | 0.00 | 0.00 | 85 | 1019.2 |
| 20260508134619 | 48 | 237 | 1.0 | 3.0 | 0.00 | 0.00 | 0.00 | 85 | 1019.0 |
| 20260508133557 | 48 | 227 | 1.0 | 4.0 | 0.00 | 0.00 | 0.00 | 85 | 1018.8 |
| 20260508132555 | 48 | 219 | 2.0 | 4.0 | 0.00 | 0.00 | 0.00 | 85 | 1018.7 |
| 20260508131554 | 48 | 231 | 1.0 | 3.0 | 0.00 | 0.00 | 0.00 | 85 | 1018.4 |
| 20260508130552 | 48 | 231 | 1.0 | 3.0 | 0.00 | 0.00 | 0.00 | 85 | 1018.3 |
| 20260508125551 | 48 | 235 | 2.0 | 4.0 | 0.00 | 0.00 | 0.00 | 85 | 1018.4 |
| 20260508124549 | 48 | 217 | 2.0 | 4.0 | 0.00 | 0.00 | 0.00 | 85 | 1018.1 |
| 20260508123607 | 48 | 234 | 1.0 | 3.0 | 0.00 | 0.00 | 0.00 | 84 | 1018.1 |
| 20260508122545 | 48 | 236 | 3.0 | 7.0 | 0.00 | 0.00 | 0.00 | 84 | 1018.0 |
| 20260508121543 | 49 | 231 | 2.0 | 4.0 | 0.00 | 0.00 | 0.00 | 84 | 1017.9 |
| 20260508120542 | 49 | 235 | 4.0 | 6.0 | 0.00 | 0.00 | 0.00 | 84 | 1017.9 |
| 20260508115540 | 49 | 249 | 2.0 | 6.0 | 0.00 | 0.00 | 0.00 | 84 | 1017.7 |
| 20260508114538 | 49 | 233 | 2.0 | 4.0 | 0.00 | 0.00 | 0.00 | 84 | 1017.7 |
| 20260508113537 | 49 | 229 | 3.0 | 4.0 | 0.00 | 0.00 | 0.00 | 83 | 1017.5 |
| 20260508112535 | 49 | 235 | 2.0 | 6.0 | 0.00 | 0.00 | 0.00 | 83 | 1017.5 |
| 20260508111533 | 49 | 228 | 2.0 | 4.0 | 0.00 | 0.00 | 0.00 | 83 | 1017.5 |
| 20260508110532 | 49 | 241 | 2.0 | 3.0 | 0.00 | 0.00 | 0.00 | 83 | 1017.3 |
| 20260508105530 | 49 | 240 | 2.0 | 4.0 | 0.00 | 0.00 | 0.00 | 83 | 1017.1 |
| 20260508104528 | 49 | 254 | 3.0 | 7.0 | 0.00 | 0.00 | 0.00 | 83 | 1017.0 |
| 20260508103526 | 49 | 236 | 2.0 | 4.0 | 0.00 | 0.00 | 0.00 | 83 | 1016.9 |
| 20260508102525 | 49 | 230 | 2.0 | 6.0 | 0.00 | 0.00 | 0.00 | 83 | 1016.9 |
| 20260508101524 | 49 | 243 | 2.0 | 4.0 | 0.00 | 0.00 | 0.00 | 83 | 1017.0 |
| 20260508100521 | 49 | 247 | 2.0 | 3.0 | 0.00 | 0.00 | 0.00 | 83 | 1016.9 |
| 20260508095519 | 49 | 236 | 2.0 | 4.0 | 0.00 | 0.00 | 0.00 | 83 | 1016.9 |
| 20260508094518 | 49 | 233 | 1.0 | 4.0 | 0.00 | 0.00 | 0.00 | 82 | 1016.9 |
| 20260508093516 | 50 | 249 | 1.0 | 3.0 | 0.00 | 0.00 | 0.00 | 82 | 1017.0 |
| 20260508092615 | 50 | 236 | 1.0 | 3.0 | 0.00 | 0.00 | 0.00 | 82 | 1016.7 |
| 20260508091613 | 50 | 241 | 1.0 | 4.0 | 0.00 | 0.00 | 0.00 | 82 | 1016.8 |
| 20260508090611 | 50 | 246 | 1.0 | 3.0 | 0.00 | 0.00 | 0.00 | 82 | 1016.9 |
| 20260508085629 | 50 | 247 | 0.0 | 1.0 | 0.00 | 0.00 | 0.00 | 81 | 1016.8 |
| 20260508084607 | 50 | 247 | 0.0 | 1.0 | 0.00 | 0.00 | 0.00 | 81 | 1016.8 |
| 20260508083606 | 50 | 0.0 | 0.0 | 0.00 | 0.00 | 0.00 | 80 | 1016.7 | |
| 20260508082604 | 50 | 0.0 | 0.0 | 0.00 | 0.00 | 0.00 | 79 | 1016.6 | |
| 20260508081622 | 51 | 0.0 | 0.0 | 0.00 | 0.00 | 0.00 | 79 | 1016.6 | |
| 20260508080601 | 51 | 247 | 0.0 | 2.0 | 0.00 | 0.00 | 0.00 | 79 | 1016.5 |
| 20260508075559 | 51 | 255 | 0.0 | 1.0 | 0.00 | 0.00 | 0.00 | 78 | 1016.7 |
| 20260508074557 | 52 | 255 | 0.0 | 1.0 | 0.00 | 0.00 | 0.00 | 77 | 1016.6 |
| 20260508073555 | 52 | 0.0 | 0.0 | 0.00 | 0.00 | 0.00 | 77 | 1016.6 | |
| 20260508072554 | 52 | 0.0 | 0.0 | 0.00 | 0.00 | 0.00 | 77 | 1016.6 | |
| 20260508071552 | 53 | 291 | 0.0 | 2.0 | 0.00 | 0.00 | 0.00 | 77 | 1016.7 |
| 20260508070551 | 53 | 259 | 0.0 | 2.0 | 0.00 | 0.00 | 0.00 | 77 | 1016.8 |
| 20260508065549 | 52 | 287 | 0.0 | 2.0 | 0.00 | 0.00 | 0.00 | 76 | 1016.9 |
| 20260508064547 | 52 | 291 | 0.0 | 2.0 | 0.00 | 0.00 | 0.00 | 75 | 1016.8 |
| 20260508063545 | 52 | 291 | 0.0 | 1.0 | 0.00 | 0.00 | 0.00 | 75 | 1016.7 |
| 20260508062543 | 53 | 291 | 0.0 | 1.0 | 0.00 | 0.00 | 0.00 | 75 | 1016.8 |
| 20260508061541 | 53 | 0.0 | 0.0 | 0.00 | 0.00 | 0.00 | 74 | 1016.7 | |
| 20260508060540 | 53 | 0.0 | 0.0 | 0.00 | 0.00 | 0.00 | 74 | 1016.7 | |
| 20260508055538 | 53 | 291 | 0.0 | 1.0 | 0.00 | 0.00 | 0.00 | 73 | 1016.6 |
| 20260508054536 | 54 | 0.0 | 0.0 | 0.00 | 0.00 | 0.00 | 72 | 1016.8 | |
| 20260508053555 | 54 | 0.0 | 0.0 | 0.00 | 0.00 | 0.00 | 71 | 1016.9 | |
| 20260508052533 | 55 | 0.0 | 0.0 | 0.00 | 0.00 | 0.00 | 69 | 1016.8 | |
| 20260508051531 | 55 | 0.0 | 0.0 | 0.00 | 0.00 | 0.00 | 69 | 1016.9 | |
| 20260508050529 | 56 | 0.0 | 0.0 | 0.00 | 0.00 | 0.00 | 68 | 1016.9 | |
| 20260508045548 | 56 | 0.0 | 0.0 | 0.00 | 0.00 | 0.00 | 68 | 1016.8 | |
| 20260508044526 | 57 | 0.0 | 0.0 | 0.00 | 0.00 | 0.00 | 66 | 1016.8 | |
| 20260508043524 | 58 | 0.0 | 0.0 | 0.00 | 0.00 | 0.00 | 66 | 1017.0 | |
| 20260508042523 | 58 | 0.0 | 0.0 | 0.00 | 0.00 | 0.00 | 65 | 1016.9 | |
| 20260508041541 | 59 | 0.0 | 0.0 | 0.00 | 0.00 | 0.00 | 65 | 1016.9 | |
| 20260508040520 | 59 | 12 | 0.0 | 1.0 | 0.00 | 0.00 | 0.00 | 64 | 1016.8 |
| 20260508035517 | 59 | 0.0 | 0.0 | 0.00 | 0.00 | 0.00 | 62 | 1016.9 | |
| 20260508034516 | 60 | 0.0 | 0.0 | 0.00 | 0.00 | 0.00 | 60 | 1016.7 | |
| 20260508033614 | 61 | 0.0 | 0.0 | 0.00 | 0.00 | 0.00 | 59 | 1016.7 | |
| 20260508032613 | 61 | 0.0 | 0.0 | 0.00 | 0.00 | 0.00 | 59 | 1016.6 | |
| 20260508031611 | 62 | 12 | 1.0 | 2.0 | 0.00 | 0.00 | 0.00 | 58 | 1016.7 |
| 20260508030612 | 62 | 326 | 1.0 | 2.0 | 0.00 | 0.00 | 0.00 | 57 | 1016.6 |
| 20260508025607 | 62 | 332 | 0.0 | 1.0 | 0.00 | 0.00 | 0.00 | 57 | 1016.7 |
| 20260508024626 | 62 | 331 | 0.0 | 1.0 | 0.00 | 0.00 | 0.00 | 56 | 1016.7 |
| 20260508023604 | 63 | 352 | 1.0 | 2.0 | 0.00 | 0.00 | 0.00 | 56 | 1016.9 |
| 20260508022602 | 63 | 9 | 1.0 | 2.0 | 0.00 | 0.00 | 0.00 | 55 | 1016.9 |
| 20260508021620 | 63 | 4 | 1.0 | 2.0 | 0.00 | 0.00 | 0.00 | 55 | 1016.9 |
| 20260508020659 | 64 | 8 | 1.0 | 3.0 | 0.00 | 0.00 | 0.00 | 54 | 1017.0 |
| 20260508015617 | 64 | 351 | 1.0 | 3.0 | 0.00 | 0.00 | 0.00 | 54 | 1017.1 |
| 20260508014617 | 64 | 358 | 2.0 | 3.0 | 0.00 | 0.00 | 0.00 | 55 | 1017.1 |
| 20260508013553 | 64 | 346 | 3.0 | 6.0 | 0.00 | 0.00 | 0.00 | 53 | 1017.1 |
| 20260508012552 | 64 | 360 | 2.0 | 4.0 | 0.00 | 0.00 | 0.00 | 54 | 1017.3 |
| 20260508011550 | 64 | 31 | 2.0 | 4.0 | 0.00 | 0.00 | 0.00 | 53 | 1017.4 |
| 20260508010548 | 64 | 5 | 2.0 | 3.0 | 0.00 | 0.00 | 0.00 | 53 | 1017.4 |
| 20260508005547 | 64 | 353 | 2.0 | 4.0 | 0.00 | 0.00 | 0.00 | 53 | 1017.5 |
| 20260508004545 | 65 | 28 | 3.0 | 4.0 | 0.00 | 0.00 | 0.00 | 52 | 1017.6 |
| 20260508003543 | 65 | 18 | 3.0 | 7.0 | 0.00 | 0.00 | 0.00 | 52 | 1017.6 |
| 20260508002542 | 64 | 17 | 2.0 | 6.0 | 0.00 | 0.00 | 0.00 | 52 | 1017.7 |
| 20260508001540 | 64 | 359 | 2.0 | 6.0 | 0.00 | 0.00 | 0.00 | 52 | 1017.8 |
| 20260508000538 | 63 | 332 | 2.0 | 7.0 | 0.00 | 0.00 | 0.00 | 53 | 1017.9 |
| 20260507235536 | 64 | 2 | 3.0 | 7.0 | 0.00 | 0.00 | 0.00 | 52 | 1018.0 |
| 20260507234534 | 64 | 342 | 3.0 | 7.0 | 0.00 | 0.00 | 0.00 | 53 | 1018.0 |
| 20260507233533 | 64 | 234 | 1.0 | 2.0 | 0.00 | 0.00 | 0.00 | 55 | 1018.0 |
| 20260507232531 | 63 | 1 | 2.0 | 7.0 | 0.00 | 0.00 | 0.00 | 54 | 1018.0 |
| 20260507231529 | 64 | 13 | 3.0 | 8.0 | 0.00 | 0.00 | 0.00 | 55 | 1018.1 |
| 20260507230528 | 64 | 10 | 3.0 | 7.0 | 0.00 | 0.00 | 0.00 | 54 | 1018.2 |
| 20260507225547 | 63 | 357 | 3.0 | 6.0 | 0.00 | 0.00 | 0.00 | 54 | 1018.4 |
| 20260507224545 | 63 | 328 | 2.0 | 6.0 | 0.00 | 0.00 | 0.00 | 56 | 1018.5 |
| 20260507223522 | 63 | 345 | 3.0 | 6.0 | 0.00 | 0.00 | 0.00 | 55 | 1018.5 |
| 20260507222521 | 63 | 350 | 3.0 | 7.0 | 0.00 | 0.00 | 0.00 | 55 | 1018.5 |
| 20260507221519 | 63 | 4 | 5.0 | 9.0 | 0.00 | 0.00 | 0.00 | 56 | 1018.7 |
| 20260507220518 | 63 | 328 | 2.0 | 4.0 | 0.00 | 0.00 | 0.00 | 57 | 1018.9 |
| 20260507215515 | 63 | 351 | 1.0 | 6.0 | 0.00 | 0.00 | 0.00 | 57 | 1018.8 |
| 20260507214634 | 63 | 0 | 4.0 | 8.0 | 0.00 | 0.00 | 0.00 | 57 | 1019.0 |
| 20260507213612 | 63 | 7 | 4.0 | 8.0 | 0.00 | 0.00 | 0.00 | 57 | 1019.1 |
| 20260507212611 | 63 | 341 | 2.0 | 6.0 | 0.00 | 0.00 | 0.00 | 59 | 1019.3 |
| 20260507211629 | 62 | 303 | 2.0 | 4.0 | 0.00 | 0.00 | 0.00 | 59 | 1019.2 |
| 20260507210608 | 62 | 0 | 2.0 | 9.0 | 0.00 | 0.00 | 0.00 | 58 | 1019.5 |
| 20260507205606 | 62 | 356 | 3.0 | 7.0 | 0.00 | 0.00 | 0.00 | 60 | 1019.5 |
| 20260507204604 | 61 | 12 | 3.0 | 9.0 | 0.00 | 0.00 | 0.00 | 58 | 1019.5 |
| 20260507203602 | 61 | 32 | 3.0 | 7.0 | 0.00 | 0.00 | 0.00 | 60 | 1019.6 |
| 20260507202600 | 62 | 350 | 3.0 | 7.0 | 0.00 | 0.00 | 0.00 | 59 | 1019.7 |
| 20260507201558 | 62 | 349 | 2.0 | 7.0 | 0.00 | 0.00 | 0.00 | 60 | 1019.8 |
| 20260507200557 | 61 | 267 | 1.0 | 3.0 | 0.00 | 0.00 | 0.00 | 62 | 1020.0 |
| 20260507195616 | 61 | 347 | 2.0 | 6.0 | 0.00 | 0.00 | 0.00 | 63 | 1020.1 |
| 20260507194553 | 60 | 4 | 4.0 | 9.0 | 0.00 | 0.00 | 0.00 | 62 | 1020.1 |
| 20260507193552 | 61 | 14 | 3.0 | 7.0 | 0.00 | 0.00 | 0.00 | 61 | 1020.2 |
| 20260507192550 | 62 | 10 | 3.0 | 7.0 | 0.00 | 0.00 | 0.00 | 60 | 1020.2 |
| 20260507191609 | 61 | 217 | 1.0 | 2.0 | 0.00 | 0.00 | 0.00 | 64 | 1020.2 |
| 20260507190547 | 60 | 313 | 1.0 | 4.0 | 0.00 | 0.00 | 0.00 | 65 | 1020.4 |
| 20260507185545 | 59 | 44 | 1.0 | 3.0 | 0.00 | 0.00 | 0.00 | 65 | 1020.4 |
| 20260507184543 | 59 | 14 | 3.0 | 6.0 | 0.00 | 0.00 | 0.00 | 64 | 1020.4 |
| 20260507183542 | 60 | 353 | 2.0 | 4.0 | 0.00 | 0.00 | 0.00 | 63 | 1020.5 |
| 20260507182540 | 60 | 16 | 1.0 | 3.0 | 0.00 | 0.00 | 0.00 | 63 | 1020.6 |
| 20260507181538 | 60 | 12 | 1.0 | 2.0 | 0.00 | 0.00 | 0.00 | 62 | 1020.7 |
| 20260507180536 | 60 | 293 | 1.0 | 3.0 | 0.00 | 0.00 | 0.00 | 64 | 1020.6 |
| 20260507175534 | 60 | 320 | 1.0 | 2.0 | 0.00 | 0.00 | 0.00 | 64 | 1020.7 |
| 20260507174532 | 60 | 288 | 2.0 | 4.0 | 0.00 | 0.00 | 0.00 | 65 | 1020.8 |